Location: Casilda
(33.0440°S, 61.1680°W)
Time: 12:54:41
(UTC-03:00)

ISS - Pass Details

Date: 25 May 2020
Orbit: 417 x 420 km, 51.6° (Epoch: 26 May)

Event Time Altitude Azimuth Distance (km) Brightness Sun altitude
Exits shadow 05:37:01 11° 131° (SE) 1,435 -0.6 -28.6°
Drops below altitude 10° 05:37:09 11° 131° (SE) 1,489 -0.5 -28.6°
Sets 05:39:21 0° 132° (SE) 2,392 0.6 -28.1°
